SCP
1 1 1 1 1 1 1 1 1 1 1 1 1 1 1 1 1 1 1 1 2 2 1 1 1 1 1 1 1 1 1 1 1 1 1 1 1 1 1 1 1 1 1
1 1 1 1 1 1 1 1 1 1 1 1 1 1 1 1 1 1 1 1 1 1 1 1 1 1 1 1 1 1 1 1 1 1 1 1 1 1 1 1 1 1 1
1 1 1 1 1 1 1 1 1 1 1 1 1 1 1 1 1 1 1 1 1 1 2 2 2 2 2 2 2 1 1 1 1 1 1 1 1 1 1 1 1 1 1
1 1 1 1 1 1 1 1 1 1 1 1 1 1 1 1 1 1 1 1 1 1 2 2 2 2 2 3 3 3 2 2 2 2 2 2 1 1 1 1 1 1 1
1 1 1 1 1 1 1 1 1 2 2 1 1 1 1 1 1 1 1 1 1 1 2 2 2 2 2 2 3 3 3 3 3 2 2 2 2 1 1 1 1 1 1
1 1 1 1 1 1 1 1 1 1 1 1 1 1 1 2 2 2 1 1 1 1 1 1 1 1 1 2 2 2 3 3 3 2 2 2 2 2 1 1 1 1 1
1 1 1 1 1 1 1 1 1 1 1 1 1 1 1 1 2 2 1 1 1 1 1 1 1 2 2 1 1 1 2 2 2 2 2 2 2 2 2 1 1 1 1
1 1 1 1 1 1 1 1 1 1 1 1 1 1 1 1 1 1 1 1 1 1 1 1 2 2 1 1 1 1 1 1 1 1 1 1 1 1 1 1 1 1 1
1 1 1 1 1 1 1 1 1 1 1 1 1 1 1 1 1 1 1 1 1 1 1 1 1 1 1 1 1 1 1 1 1 1 1 1 1 1 1 1 1 1 1
1 1 1 1 1 1 1 1 1 1 1 1 1 1 1 1 1 1 1 1 1 1 1 1 1 1 1 1 1 1 1 1 1 1 1 1 1 1 1 1 1 1 1
1 1 1 1 1 1 1 1 1 1 1 1 1 1 1 1 1 1 1 1 1 1 1 1 1 2 2 2 1 1 1 1 1 1 1 1 1 1 1 1 1 1 1
1 1 1 1 2 2 2 2 2 2 1 1 2 2 2 1 1 1 1 2 2 1 1 1 1 1 2 1 1 1 1 1 1 1 1 1 1 1 1 1 1 1 1
1 1 1 1 2 2 2 2 2 2 2 1 2 2 2 2 2 2 2 2 2 2 2 1 1 1 2 1 1 1 1 1 1 1 1 1 1 1 1 1 1 1 1
0 1 1 1 2 2 1 1 1 1 1 1 1 2 2 2 2 2 2 2 2 2 1 1 1 1 2 2 2 2 2 1 1 1 0 0 1 1 1 1 1 1 1
1 1 1 1 1 1 1 1 1 1 1 1 1 2 2 2 2 2 2 2 2 2 2 2 2 2 2 2 2 2 2 2 1 1 0 0 0 0 0 0 0 0 0
1 1 1 1 1 1 1 1 1 1 1 1 1 2 2 2 2 2 2 2 2 2 2 2 2 2 3 3 3 3 3 2 1 1 0 0 0 0 0 0 0 0 0
1 1 1 1 1 1 1 1 1 1 1 1 1 2 2 2 2 2 2 2 2 2 2 3 3 3 3 3 3 3 3 3 2 1 1 0 0 0 0 0 0 0 0
1 1 1 1 1 1 1 1 1 1 1 1 2 2 2 3 3 3 2 2 3 3 3 3 4 4 3 3 3 3 3 3 3 2 1 0 0 0 0 0 0 0 0
1 1 1 1 1 1 2 2 2 1 2 2 2 3 3 4 4 3 3 3 3 4 4 4 4 4 4 3 3 3 3 3 2 2 1 1 0 0 0 0 0 0 0
2 2 2 2 2 2 2 2 2 2 2 2 3 3 4 4 5 4 4 4 4 5 5 5 5 5 5 4 3 3 3 3 2 2 2 1 1 1 0 0 0 0 0
2 3 3 3 2 2 2 2 2 2 2 3 3 3 4 4 5 4 4 4 5 6 6 5 5 5 5 4 3 3 2 2 3 3 3 3 2 2 2 1 1 0 0
3 4 4 4 3 2 2 2 2 3 3 3 3 3 4 4 4 3 3 3 4 5 5 5 4 5 5 4 3 3 3 2 2 3 4 3 3 3 3 2 1 0 0
4 4 4 4 4 3 2 1 2 2 3 3 4 4 4 4 4 4 3 3 3 3 3 3 5 6 5 4 3 3 3 3 2 3 4 3 3 3 4 3 1 1 0
4 4 4 4 4 3 2 1 1 2 3 4 5 5 6 5 4 4 4 5 4 3 2 3 4 5 4 3 3 3 3 3 3 3 3 3 3 3 3 2 1 0 0
5 5 5 5 5 4 2 1 1 3 5 5 6 7 7 6 4 3 4 5 5 3 3 2 2 2 2 2 2 3 3 3 3 3 3 3 3 3 3 2 1 1 1
5 5 5 5 5 5 3 1 2 5 7 7 7 7 7 5 3 2 3 5 4 3 3 2 2 1 1 2 2 3 3 3 3 2 3 3 2 2 2 2 1 1 1
Wind_Speed
1 1 1 0 1 2 2 2 2 1 2 2 2 2 1 1 1 1 4 7 5 3 3 4 4 5 6 6 6 6 7 7 7 7 7 8 9 9 9 9 8 8 9
1 1 1 1 1 1 1 1 2 2 2 1 1 1 2 2 2 2 2 6 7 5 4 3 4 4 5 5 5 5 6 6 7 7 7 7 7 8 8 9 9 9 9
1 1 1 1 1 1 2 2 2 2 3 2 2 2 2 2 2 2 1 2 5 7 6 4 4 3 4 4 4 5 5 6 6 6 6 6 6 6 7 8 9 9 9
0 1 1 0 1 1 2 2 2 2 1 1 1 1 2 2 2 2 2 2 1 3 6 6 4 3 3 3 3 4 5 6 6 6 6 6 6 6 7 7 8 9 9
0 1 0 1 1 1 1 1 1 1 1 1 2 2 2 2 2 2 2 2 2 2 2 7 6 4 3 3 2 3 3 4 5 6 6 7 7 7 7 7 8 8 9
1 1 1 1 1 1 1 1 1 1 1 2 1 1 2 2 2 1 2 2 2 3 3 3 5 6 6 4 3 3 3 3 4 4 5 6 6 6 6 7 7 8 9
1 1 1 0 1 1 1 1 1 2 2 1 2 2 2 3 2 2 2 1 2 2 2 3 2 2 4 7 5 3 3 3 3 4 4 5 5 5 5 5 6 7 7
1 1 0 1 1 1 1 1 1 1 1 1 2 2 2 4 3 2 2 2 2 2 3 3 2 2 2 2 4 6 4 3 3 3 4 5 5 5 5 5 5 6 6
1 1 1 1 1 2 1 1 2 2 2 2 2 3 2 1 1 3 3 2 2 2 3 2 3 3 3 2 2 5 4 3 3 3 3 4 4 4 4 5 5 5 5
2 2 1 1 1 1 1 2 1 2 3 2 1 2 3 3 3 1 3 3 3 3 3 3 3 3 3 3 2 2 3 3 3 4 4 4 4 4 4 5 5 5 4
2 2 2 2 2 2 1 1 1 3 2 2 2 2 2 2 4 4 2 2 2 3 2 3 3 2 3 3 2 2 4 3 3 3 4 4 4 4 4 4 5 5 5
2 2 2 2 2 1 1 2 2 2 2 2 3 2 2 3 3 3 3 3 3 2 2 2 3 2 3 3 2 4 4 3 3 3 3 3 3 3 4 4 4 4 4
2 2 2 2 1 1 2 1 2 2 2 2 3 3 3 3 3 4 4 4 4 2 2 3 3 2 3 2 2 4 5 4 4 3 3 2 2 3 3 4 4 4 4
2 2 3 2 2 2 2 1 2 2 2 2 3 3 3 3 4 4 4 4 4 4 3 3 2 2 2 2 1 5 4 5 4 4 3 3 2 3 3 3 4 4 4
2 3 3 3 3 2 2 2 1 2 2 3 3 3 4 3 3 3 4 4 5 5 4 2 3 2 2 2 2 4 3 5 5 4 4 3 3 3 3 3 4 4 4
3 3 3 3 3 3 2 3 2 2 3 3 3 3 4 4 3 3 4 4 4 5 5 3 2 2 2 2 3 4 3 6 6 5 4 4 4 4 4 4 4 4 4
4 4 4 4 3 3 3 3 3 3 3 3 3 3 4 4 4 4 3 4 4 5 5 5 2 1 2 3 2 3 4 5 5 7 5 5 5 5 5 5 4 4 4
5 4 4 4 4 3 3 3 3 3 3 4 4 4 4 3 4 4 3 4 4 4 5 6 4 3 3 4 3 5 4 4 4 7 7 6 5 5 5 5 5 4 4
4 4 4 4 4 4 4 4 4 4 4 4 4 4 4 4 4 3 4 4 4 4 4 5 5 3 3 3 4 5 5 4 5 5 8 8 6 6 5 5 5 4 4
5 5 5 5 5 4 4 4 4 4 5 5 4 4 4 4 4 4 4 4 4 4 4 5 4 3 3 2 4 4 4 3 4 4 3 4 6 8 7 6 5 5 5
6 5 5 5 5 5 3 3 4 5 5 5 5 4 4 2 3 4 4 3 4 4 4 4 4 4 3 3 4 4 4 4 4 4 3 3 4 4 6 7 7 6 5
5 5 5 4 5 3 1 1 4 4 4 5 4 4 4 4 3 3 4 5 5 5 5 5 4 4 4 4 4 5 4 4 4 2 3 4 3 3 3 3 5 6 6
6 5 5 5 4 3 2 2 4 5 5 4 4 4 4 1 2 3 3 5 5 5 5 6 6 5 5 4 5 6 5 5 5 2 3 4 3 4 3 2 7 7 6
5 5 5 5 4 3 4 3 4 6 5 4 4 4 4 3 2 3 4 4 4 3 4 5 4 5 5 4 5 6 6 6 6 4 3 4 3 3 2 1 7 7 6
4 4 4 4 4 3 4 4 4 5 4 5 4 3 3 3 2 4 4 4 4 3 3 3 4 4 4 4 5 5 4 5 5 3 2 4 3 2 2 2 4 8 7
3 3 3 4 5 4 4 5 5 5 4 4 3 3 2 1 1 2 4 3 4 4 4 3 3 4 5 4 6 6 5 5 5 3 2 3 3 2 2 2 2 3 4
Wind_Direction
128 118 112 143 166 151 175 182 163 159 184 186 192 172 163 138 135 132 121 133 145 157 169 180 191 195 199 201 206 211 211 210 215 218 219 221 223 223 223 223 220 220 219
99 157 149 156 159 177 165 189 179 187 208 183 204 186 209 173 149 185 155 148 154 161 168 175 187 196 200 204 208 210 210 212 212 211 213 217 223 224 225 227 223 222 222
126 198 170 182 140 160 165 184 188 201 205 196 199 198 204 204 166 187 207 190 161 164 169 169 172 188 197 202 206 207 207 207 206 209 213 218 222 227 231 232 228 226 224
162 250 208 155 129 179 177 184 204 201 197 214 200 209 194 181 193 200 203 205 200 165 159 159 163 172 179 188 198 208 212 213 210 213 216 219 221 228 234 234 233 232 228
211 247 240 102 210 192 189 210 144 217 195 216 205 191 202 188 185 197 193 203 197 190 163 151 165 167 179 191 195 206 211 215 211 217 223 224 223 224 230 232 233 233 230
184 263 201 188 241 186 171 145 157 208 232 230 246 176 200 183 190 186 232 207 201 204 194 169 177 176 182 193 206 222 223 219 214 217 224 228 227 226 230 232 235 235 231
149 259 298 197 256 177 169 185 195 184 209 214 234 202 186 185 193 181 212 236 200 198 193 186 201 200 176 182 193 216 227 229 226 223 226 230 229 227 229 231 234 234 233
224 204 229 239 233 182 162 178 215 239 191 203 258 245 210 183 194 186 193 209 219 201 200 194 180 193 238 194 160 186 206 218 228 229 227 231 230 228 227 229 234 234 234
217 255 212 245 243 241 177 209 232 240 232 209 265 289 281 258 206 177 199 212 216 229 227 212 207 203 220 220 191 168 186 204 218 234 235 234 228 231 231 230 230 235 236
207 208 212 220 251 253 203 232 198 257 259 243 208 271 305 333 292 240 199 197 204 221 243 252 238 213 224 226 180 121 162 196 218 233 238 240 234 229 229 230 234 235 232
205 204 204 212 232 246 227 286 271 268 263 277 273 262 258 248 263 274 271 251 224 218 223 242 250 241 235 235 230 166 158 186 210 229 236 238 240 232 228 227 230 231 229
196 190 204 218 234 250 220 240 253 244 274 289 286 280 277 267 262 267 267 250 245 227 230 244 255 248 240 235 210 132 152 178 195 212 226 234 243 239 237 235 235 233 235
194 185 211 218 227 237 241 239 230 263 254 259 264 269 277 284 287 282 281 277 275 254 229 237 238 244 243 237 173 161 167 181 192 205 213 221 225 228 234 236 231 231 237
204 187 209 213 214 225 233 232 237 229 237 250 263 272 271 275 279 276 276 282 277 264 234 244 240 239 248 241 154 207 186 173 191 203 216 220 216 210 213 219 218 225 234
197 184 203 212 213 212 222 236 246 260 265 260 261 255 264 268 265 269 272 272 278 283 272 229 243 233 244 233 169 228 220 169 187 203 215 219 219 214 209 211 218 227 234
206 204 205 210 215 212 210 230 229 230 251 260 276 288 281 280 281 269 264 264 267 275 282 282 248 246 259 256 183 236 232 178 191 204 215 224 230 223 214 215 221 226 228
202 209 214 216 219 225 222 229 245 233 244 257 265 267 274 289 286 284 276 265 260 262 269 279 275 241 238 264 241 251 236 228 194 184 202 223 230 229 223 221 223 225 227
209 207 211 216 223 223 229 231 247 250 255 258 265 272 274 269 273 281 288 280 272 263 261 269 273 254 242 245 242 249 248 238 237 172 192 213 225 228 226 223 223 224 225
210 213 215 219 224 225 227 234 240 251 259 265 269 270 273 276 276 280 277 281 278 270 264 262 261 260 252 246 249 247 245 246 254 190 191 202 213 222 221 216 217 220 220
211 216 217 222 225 223 228 236 242 248 257 264 268 270 271 271 271 274 268 272 281 283 271 265 265 256 251 243 250 254 249 233 252 256 226 218 203 208 209 209 209 215 217
212 212 217 219 224 221 223 235 246 247 256 262 263 264 262 272 301 290 294 294 284 279 277 270 266 264 266 265 262 263 263 256 237 255 251 240 215 216 203 203 204 207 210
210 211 215 214 220 223 148 234 267 259 255 257 262 262 246 221 219 243 282 291 290 280 286 284 272 273 273 269 271 271 272 265 261 236 254 255 242 239 229 223 169 178 195
207 208 211 207 211 208 170 204 249 263 259 261 265 269 273 265 237 255 245 240 255 257 265 276 277 277 277 275 275 266 264 273 277 274 256 253 241 242 233 178 148 168 184
208 206 205 205 213 203 173 204 241 241 250 254 257 261 272 287 303 301 277 271 270 265 256 258 273 276 279 280 265 265 270 260 258 249 237 258 251 256 254 189 152 169 183
206 204 203 207 216 211 180 199 239 245 243 249 250 252 260 272 338 308 273 272 277 279 257 262 279 280 287 277 276 267 262 262 266 254 229 256 258 256 254 233 165 172 185
206 212 211 217 220 223 184 193 227 248 247 254 248 234 196 264 299 277 269 275 280 291 299 272 251 242 245 238 233 246 259 265 272 266 207 246 259 255 255 225 200 183 193